BOLT01 EGXC-EGTK

Flight info

Callsign BOLT01
Flight time N/A
Altitude 4500
Route EGXC EGXC
Aircraft F35/M-L/S

Departure

Time 2026-04-21 18:10
Airport RAF Coningsby (EGXC)

Arrival

Time N/A
Airport London Oxford Airport (EGTK)
Time Latitude Longitude Altitude Speed Heading
2026-04-21 18:06 53.08833 -0.18460 25 ft 0 kts 318°
2026-04-21 18:09 53.08893 -0.18520 28 ft 23 kts 342°
2026-04-21 18:10 53.09020 -0.18129 26 ft 124 kts 72°
2026-04-21 18:10 53.09535 -0.15538 1861 ft 294 kts 72°
2026-04-21 18:10 53.10159 -0.12376 1558 ft 287 kts 71°
2026-04-21 18:10 53.10774 -0.09252 1690 ft 285 kts 72°
2026-04-21 18:11 53.11371 -0.06223 1528 ft 265 kts 72°
2026-04-21 18:11 53.11931 -0.03329 1094 ft 258 kts 72°
2026-04-21 18:11 53.12502 -0.00346 760 ft 301 kts 71°
2026-04-21 18:11 53.12177 0.02350 858 ft 254 kts 154°
2026-04-21 18:12 53.10404 0.02056 1036 ft 266 kts 197°
2026-04-21 18:12 53.08674 0.00981 1167 ft 265 kts 198°
2026-04-21 18:12 53.06950 -0.00113 1265 ft 262 kts 198°
2026-04-21 18:12 53.05232 -0.01206 1381 ft 263 kts 197°
2026-04-21 18:13 53.03491 -0.02297 1469 ft 267 kts 197°
2026-04-21 18:13 53.01758 -0.03370 1494 ft 262 kts 196°
2026-04-21 18:13 53.00048 -0.04513 1511 ft 264 kts 199°
2026-04-21 18:13 52.98345 -0.05754 1521 ft 268 kts 200°
2026-04-21 18:14 52.94039 -0.08912 1515 ft 368 kts 201°
2026-04-21 18:14 52.91663 -0.10649 1521 ft 367 kts 201°
2026-04-21 18:14 52.89335 -0.12358 1514 ft 363 kts 201°
2026-04-21 18:15 52.87048 -0.14049 1519 ft 366 kts 201°
2026-04-21 18:15 52.84714 -0.15769 1507 ft 368 kts 201°
2026-04-21 18:15 52.82397 -0.17483 1481 ft 366 kts 201°
2026-04-21 18:15 52.80070 -0.19203 1468 ft 363 kts 201°
2026-04-21 18:16 52.77755 -0.20906 1457 ft 365 kts 201°
2026-04-21 18:16 52.75422 -0.22627 1459 ft 368 kts 201°
2026-04-21 18:16 52.73095 -0.24338 1472 ft 365 kts 201°
2026-04-21 18:16 52.70768 -0.26048 1467 ft 365 kts 201°
2026-04-21 18:17 52.68448 -0.27749 1471 ft 365 kts 201°
2026-04-21 18:17 52.66104 -0.29475 1465 ft 371 kts 201°
2026-04-21 18:17 52.63780 -0.31167 1464 ft 367 kts 201°
2026-04-21 18:17 52.61432 -0.32873 1450 ft 366 kts 201°
2026-04-21 18:18 52.59091 -0.34570 1456 ft 370 kts 201°
2026-04-21 18:18 52.56741 -0.36258 1448 ft 365 kts 201°
2026-04-21 18:18 52.54365 -0.37950 1464 ft 414 kts 201°
2026-04-21 18:18 52.51388 -0.39999 1463 ft 465 kts 201°
2026-04-21 18:19 52.48382 -0.42055 1459 ft 472 kts 200°
2026-04-21 18:19 52.45407 -0.43986 1456 ft 463 kts 196°
2026-04-21 18:19 52.42333 -0.45469 1440 ft 435 kts 192°
2026-04-21 18:19 52.39581 -0.46070 1436 ft 371 kts 179°
2026-04-21 18:20 52.37155 -0.46280 1416 ft 329 kts 180°
2026-04-21 18:20 52.35000 -0.46519 1432 ft 291 kts 180°
2026-04-21 18:20 52.33104 -0.46747 1436 ft 255 kts 180°
2026-04-21 18:20 52.31404 -0.46990 1457 ft 243 kts 180°
2026-04-21 18:21 52.29737 -0.47246 1458 ft 239 kts 180°
2026-04-21 18:21 52.28059 -0.47510 1454 ft 242 kts 181°
2026-04-21 18:21 52.26397 -0.47752 1458 ft 242 kts 180°
2026-04-21 18:21 52.24732 -0.47998 1453 ft 237 kts 181°
2026-04-21 18:22 52.23086 -0.48241 1445 ft 230 kts 181°
2026-04-21 18:22 52.21588 -0.48481 1441 ft 215 kts 180°
2026-04-21 18:22 52.20126 -0.48836 1454 ft 212 kts 198°
2026-04-21 18:22 52.18818 -0.50029 1473 ft 219 kts 211°
2026-04-21 18:23 52.17567 -0.51484 1453 ft 218 kts 212°
2026-04-21 18:23 52.16296 -0.52839 1429 ft 219 kts 207°
2026-04-21 18:23 52.14970 -0.54080 1437 ft 220 kts 200°
2026-04-21 18:23 52.13550 -0.54912 1465 ft 216 kts 192°
2026-04-21 18:24 52.12122 -0.55587 1477 ft 212 kts 192°
2026-04-21 18:24 52.10721 -0.56412 1519 ft 215 kts 196°
2026-04-21 18:24 52.09400 -0.57263 1539 ft 190 kts 197°
2026-04-21 18:24 52.08188 -0.58071 1186 ft 178 kts 197°
2026-04-21 18:25 52.06987 -0.58856 1101 ft 185 kts 197°
2026-04-21 18:25 52.05788 -0.59618 1093 ft 184 kts 195°
2026-04-21 18:25 52.04932 -0.60911 980 ft 173 kts 271°
2026-04-21 18:25 52.05380 -0.62676 837 ft 171 kts 330°
2026-04-21 18:26 52.06330 -0.62597 501 ft 147 kts 38°
2026-04-21 18:26 52.07163 -0.61716 363 ft 114 kts 33°
2026-04-21 18:26 52.08088 -0.60764 703 ft 214 kts 36°
2026-04-21 18:26 52.08907 -0.58663 1311 ft 255 kts 98°
2026-04-21 18:27 52.07453 -0.57371 1670 ft 267 kts 182°
2026-04-21 18:27 52.05757 -0.58582 1869 ft 271 kts 205°
2026-04-21 18:27 52.04277 -0.60200 1270 ft 239 kts 231°
2026-04-21 18:27 52.03822 -0.62394 764 ft 205 kts 292°
2026-04-21 18:28 52.04843 -0.64080 806 ft 216 kts 348°
2026-04-21 18:28 52.05806 -0.63273 610 ft 144 kts 53°
2026-04-21 18:28 52.06522 -0.62368 417 ft 130 kts 36°
2026-04-21 18:28 52.07246 -0.61631 363 ft 111 kts 32°
2026-04-21 18:29 52.08192 -0.60658 416 ft 267 kts 36°
2026-04-21 18:29 52.09074 -0.61264 781 ft 300 kts 225°
2026-04-21 18:29 52.07125 -0.64529 1335 ft 484 kts 224°